Notices

What's New in latest Release from April 7th, 2021:

- Updated Glossary, including Speed of Maximum Gust, and Total Hourly Precipitation

- Updated national and regional climate services offices contacts and prices information

- Addition of station inventory lists for 1981-2010, 1971-2000, and 1961-1990 Normals.

If you haven't already, please take our survey and provide feedback about our website: https://eccc.sondage-survey.ca/f/LanguageSelection.aspx?s=442ca660-fcf1-47c0-95a9-59707d6fd709

Hourly Data Report for August 25, 2019

TORONTO CITY
ONTARIO
Current Station Operator: ECCC - MSC

43°40'00.000" N
79°24'00.000" W
112.50 m
6158355
71508
XTO

Download Data

Hourly Data (August 2019)
Hourly Data Report for August 25, 2019
TIME
LST
Temp Definition
°C
Dew Point Definition
°C
Rel Hum Definition
%
Precip. Amount Definition
mm

Wind Dir Definition
10's deg

Wind Spd Definition
km/h
Visibility Definition
km
Stn Press Definition
kPa
Hmdx Definition


Wind Chill Definition


Weather Definition


00:00 17.3 10.9 66 0.0       101.25     LegendNANA
01:00 17.2 11.0 67 0.0       101.18     LegendNANA
02:00 16.9 11.5 71 0.0       101.15     LegendNANA
03:00 16.8 11.7 72 0.0       101.15     LegendNANA
04:00 16.1 11.6 75 0.0       101.20     LegendNANA
05:00 15.6 11.6 77 0.0       101.24     LegendNANA
06:00 15.8 11.9 78 0.0       101.27     LegendNANA
07:00 17.1 12.0 72 0.0       101.27     LegendNANA
08:00 19.1 13.0 67 0.0       101.30     LegendNANA
09:00 20.0 14.3 70 0.0       101.29     LegendNANA
10:00 20.6 15.0 70 0.0       101.29 25   LegendNANA
11:00 20.6 13.8 65 0.0       101.27     LegendNANA
12:00 21.2 13.7 62 0.0       101.21     LegendNANA
13:00 21.6 13.1 58 0.0       101.19     LegendNANA
14:00 22.1 12.6 55 0.0       101.13 25   LegendNANA
15:00 21.9 11.8 52 0.0       101.07     LegendNANA
16:00 22.2 11.6 51 0.0       101.03     LegendNANA
17:00 21.7 10.8 50 0.0       101.00     LegendNANA
18:00 21.3 12.2 56 0.0       100.98     LegendNANA
19:00 20.7 12.6 60 0.0       100.95     LegendNANA
20:00 20.3 14.4 69 0.0       100.95     LegendNANA
21:00 19.9 15.3 75 0.0       100.94     LegendNANA
22:00 19.7 15.4 76 0.0       100.93     LegendNANA
23:00 19.6 16.1 81 0.0       100.91     LegendNANA

Notes on Data Quality.

Legend

  • E = Estimated
  • M = Missing
  • NA = Not Available*
  • [empty] = Indicates an unobserved value
Date modified: